Location: Newark
(0.5300°S, 127.4800°E)
Time: 00:44:02
(UTC+00:00)

Vanguard 3 - Pass Details

Date: 20 September 2019
Orbit: 508 x 3262 km, 33.3° (Epoch: 15 October)

Event Time Altitude Azimuth Distance (km) Brightness Sun altitude
Rises 21:01:50 0° 252° (WSW) 4,149 - -5.4°
Exits shadow 21:02:57 - 255° (WSW) 3,829 10.0 -5.1°
Reaches altitude 10° 21:04:17 10° 258° (WSW) 3,469 9.7 -4.8°
Maximum altitude 21:13:16 49° 331° (NNW) 2,458 9.4 -2.6°
Drops below altitude 10° 21:28:37 10° 41° (NE) 5,701 12.2 1.3°
Sets 21:34:01 0° 46° (NE) 6,988 12.7 2.6°
